Create Custom Reports and Graphics: Custom Report

Belmont 8000'

Squaw Valley

9/3/26 11:45 PM (-07:00)
Updated Every 15 Minutes
Temp 40.7 °F   0.1
RH 100 %   19
Dew Pt 40.7 °F   5.6
Wet Bulb 40.7 °F   2.9
Wind Dir SE | 142 °
Wind Spd 12.4 mph   1.7
Wind Gust 31.3 mph   10.7
WindChill 34.3 °F   0.2
Daily Min Temp 39.6 °F   3.3
Daily Max Temp 45.5 °F   3.7
Latest Rain 0.00 In
Daily Rain 0.04 In

Last 24 Hours

OV-Belmont 8000'

Hourly Data | America/Los_Angeles
as of 9/3/26 11:48 PM PDT
Date & Time Temp (°F) RH (%) Dew Pt (°F) Wet Bulb (°F) Wind Dir (°) Wind Spd (mph) Wind Gust (mph) WindChill (°F) Latest Rain (In) Daily Min Temp (°F) Daily Max Temp (°F) Daily Rain (In)
9/3/26 - 2300 41.3 100 41.3 41.3 SE | 135 12.6 33.1 34.6 0.00 39.6 45.5 0.03
9/3/26 - 2200 41.0 100 41.0 41.0 SE | 136 15.5 38.5 33.4 0.00 39.6 45.5 0.03
9/3/26 - 2100 40.8 99 40.6 40.7 SE | 129 15.0 41.3 33.4 0.02 39.6 45.5 0.03
9/3/26 - 2000 41.2 98 40.6 40.9 SE | 142 13.8 33.5 34.2 0.01 39.6 45.5 0.01
9/3/26 - 1900 41.1 95 39.7 40.4 SSE | 147 13.2 36.5 34.1 0.00 39.6 45.5 0.00
9/3/26 - 1800 40.7 95 39.3 40.0 SSE | 153 11.8 34.1 34.8 0.00 39.6 45.5 0.00
9/3/26 - 1700 42.0 89 38.9 40.4 SSE | 168 10.3 35.2 37.0 0.00 39.6 45.5 0.00
9/3/26 - 1600 42.6 88 39.4 40.9 SSE | 153 11.0 30.4 37.0 0.00 39.6 45.5 0.00
9/3/26 - 1500 42.8 89 39.7 41.1 SSE | 148 9.2 31.0 38.4 0.00 39.6 45.5 0.00
9/3/26 - 1400 43.4 85 39.1 41.1 SSE | 158 8.9 25.3 39.2 0.00 39.6 45.5 0.00
9/3/26 - 1300 44.2 82 39.2 41.5 SSE | 155 9.7 28.6 39.5 0.00 39.6 45.5 0.00
9/3/26 - 1200 43.7 81 38.2 40.8 SSE | 151 9.2 23.8 38.9 0.00 39.6 43.9 0.00
9/3/26 - 1100 43.1 77 36.6 39.8 SSE | 152 10.6 25.5 36.8 0.00 39.6 43.3 0.00
9/3/26 - 1000 41.8 72 33.6 37.6 SSE | 162 11.9 24.9 34.4 0.00 39.6 41.8 0.00
9/3/26 - 0900 40.7 68 31.0 36.1 SSE | 158 11.2 20.8 33.8 0.00 39.6 40.8 0.00
9/3/26 - 0800 40.3 61 27.9 34.7 SSE | 148 7.8 19.5 35.3 0.00 39.6 40.7 0.00
9/3/26 - 0700 40.1 48 21.9 32.5 SE | 146 8.1 24.5 35.4 0.00 39.6 40.7 0.00
9/3/26 - 0600 40.1 55 25.3 33.6 SSE | 149 8.8 24.5 34.8 0.00 39.6 40.7 0.00
9/3/26 - 0500 39.9 60 27.0 34.1 SSE | 154 9.2 20.4 34.1 0.00 39.6 40.7 0.00
9/3/26 - 0400 40.1 66 29.6 35.2 SSE | 154 9.7 24.1 34.6 0.00 39.9 40.7 0.00
9/3/26 - 0300 40.2 78 34.0 37.1 SE | 145 11.4 29.0 33.5 0.00 39.9 40.7 0.00
9/3/26 - 0200 40.2 79 34.2 37.2 SSE | 163 5.1 14.4 37.2 0.00 40.1 40.7 0.00
9/3/26 - 0100 40.4 83 35.8 38.1 SSE | 150 9.6 24.6 35.0 0.00 40.4 40.7 0.00
9/3/26 - 0000 40.4 81 35.2 37.8 SSE | 148 10.6 23.0 34.2 0.00 36.3 49.2 0.00
9/2/26 - 2300 40.6 87 37.0 38.8 SSE | 156 12.3 23.0 33.5 0.00 36.3 49.2 0.00
Max 44.2 100 41.3 41.5 - 15.5 41.3 39.5 0.02 40.4 49.2 0.03
Avg 41.3 81 35.4 38.5 - 10.7 27.6 35.5 0.00 - - -
Min 39.9 48 21.9 32.5 - 5.1 14.4 33.4 0.00 36.3 40.7 0.00
Total - - - - - - - - 0.03 - - -

Last 30 Days

OV-Belmont 8000'

Daily Data | America/Los_Angeles
as of 9/3/26 11:48 PM PDT
Date Daily Max Temp (°F) Time of Max Temp Daily Min Temp (°F) Time of Min Temp Daily Rain (In) Season Precip (In) Wind Spd (mph) Daily Max Wind (mph) Time of Max Wind Max Wind Dir (°) Daily Max RH (%) Daily Min RH (%) Wet Bulb (°F) WetB Hrs <28F (hrs) MinBV Day (V)
9/2/26 49.2 1717 36.3 0513 0.00 102.80 11.0 38.5 0210 S | 170 88 57 37.6 0.0 13.3
9/1/26 56.8 1305 37.4 2212 0.00 102.80 13.4 52.7 1522 ENE | 67 79 30 39.5 0.0 13.1
8/31/26 67.6 1342 48.7 2359 0.00 102.80 10.4 29.4 2102 SSE | 168 66 25 44.3 0.0 13.0
8/30/26 68.6 1530 49.0 0351 0.00 102.80 8.6 24.1 0858 SSW | 204 54 21 43.4 0.0 13.1
8/29/26 63.4 1511 48.3 0641 0.00 102.80 9.9 29.4 1106 SE | 142 92 32 46.2 0.0 12.7
8/28/26 56.2 0149 48.4 1047 0.11 102.80 8.6 18.6 2204 S | 174 98 43 47.9 0.0 13.2
8/27/26 71.3 1303 55.4 2357 0.00 102.70 9.4 27.0 0208 SW | 231 55 23 46.5 0.0 13.0
8/26/26 72.4 1510 58.2 0359 0.00 102.70 10.5 34.9 1358 SW | 226 64 28 50.4 0.0 13.0
8/25/26 71.2 1651 55.6 0348 0.00 102.70 9.2 31.0 0927 SSW | 203 51 33 49.0 0.0 13.0
8/24/26 73.5 1351 57.4 2302 0.00 102.70 9.4 30.3 1405 WSW | 245 53 34 49.9 0.0 13.0
8/23/26 72.6 1337 57.4 0236 0.00 102.70 10.6 27.1 1409 NNW | 329 57 29 49.7 0.0 12.6
8/22/26 70.8 1242 57.6 0704 0.00 102.70 8.5 30.2 1426 SSW | 202 51 32 48.6 0.0 12.6
8/21/26 74.4 1241 59.4 2333 0.00 102.70 11.8 26.1 1956 WSW | 240 49 26 49.3 0.0 13.0
8/20/26 75.3 1424 60.1 2030 0.00 102.70 11.3 28.3 1457 W | 280 41 20 47.9 0.0 13.0
8/19/26 77.0 1346 57.9 0626 0.00 102.70 6.7 22.9 2247 SSW | 213 45 21 49.6 0.0 13.0
8/18/26 74.9 1709 57.0 0130 0.00 102.70 6.7 20.0 1320 SW | 231 48 21 48.4 0.0 13.0
8/17/26 70.9 1147 55.6 0557 0.00 102.70 9.4 33.8 1533 SSW | 196 54 32 48.4 0.0 13.0
8/16/26 72.0 1442 53.7 0051 0.00 102.70 8.9 23.5 0442 SSE | 168 52 25 46.2 0.0 13.0
8/15/26 65.5 1623 50.6 0703 0.00 102.70 12.3 29.8 0216 NNE | 20 71 31 45.3 0.0 13.1
8/14/26 64.0 1525 49.5 0341 0.00 102.70 11.5 27.8 0516 SSW | 207 79 46 47.6 0.0 13.1
8/13/26 63.0 1254 52.0 2356 0.00 102.70 12.0 33.0 1508 WSW | 242 76 55 49.9 0.0 13.1
8/12/26 69.3 1640 57.4 2359 0.00 102.70 11.3 30.6 1231 SW | 227 64 19 48.9 0.0 13.0
8/11/26 77.2 1513 61.3 2211 0.00 102.70 11.9 25.0 0303 SSE | 151 35 16 47.7 0.0 13.0
8/10/26 77.7 1154 63.4 2106 0.00 102.70 10.4 26.5 1400 SW | 234 42 19 49.9 0.0 13.0
8/9/26 83.4 1450 65.7 2111 0.00 102.70 5.9 19.9 1522 NW | 309 36 16 50.6 0.0 13.0
8/8/26 85.3 1608 66.8 2357 0.00 102.70 5.3 17.7 1845 WNW | 289 40 21 53.2 0.0 13.0
8/7/26 87.8 1633 66.5 0124 0.00 102.70 5.9 19.9 1447 NNW | 348 39 17 52.6 0.0 13.0
8/6/26 80.2 1523 64.3 0359 0.00 102.70 9.7 22.6 1424 WSW | 251 33 15 50.2 0.0 13.0
8/5/26 80.7 1653 58.9 0609 0.00 102.70 8.0 19.1 1515 SW | 225 43 11 47.9 0.0 13.0
8/4/26 80.5 1446 58.7 0448 0.00 102.70 5.0 18.3 1805 W | 259 39 11 48.4 0.0 13.0
Max 87.8 - 66.8 - 0.11 102.80 13.4 52.7 - - 98 57 53.2 0.0 13.3
Avg - - - - - - 9.4 - - - - - 47.8 - -
Min 49.2 - 36.3 - 0.00 102.70 5.0 17.7 - - 33 11 37.6 0.0 12.6
Calm: 0.0%
Calm: 0.0%